Regional Weather Roundup
Issued by NWS Kansas City/Pleasant Hill, MO

Home | Current Version | Previous Version | Graphics & Text | Print | Product List | Glossary Off
Versions: 1 2 3 4 5 6 7 8 9 10 11 12 13 14 15 16 17 18 19 20 21 22 23 24 25 26 27 28

000
ASUS43 KEAX 282210
RWREAX

WEATHER ROUNDUP FOR EASTERN KANSAS AND NORTHWEST MISSOURI
NATIONAL WEATHER SERVICE KANSAS CITY/PLEASANT HILL MO
500 PM CDT FRI APR 28 2017

KSZ040-057-103>105-MOZ028-029-037-043-282300-
...KANSAS CITY METROPOLITAN AREA...

CITY           SKY/WX    TMP DP  RH WIND       PRES   REMARKS
K.C. INTL      DRZL/FOG  54  53  97 NE13      29.73R VSB 1/4
K.C. DOWNTOWN  CLOUDY    65  58  78 N3        29.71R
LEES SUMMIT    CLOUDY    63  57  81 W6        29.72R
OLATHE - IXD   MOSUNNY   65  57  75 CALM      29.71R
OLATHE - OJC   MOSUNNY   64  59  83 CALM      29.71R
LAWRENCE       PTSUNNY   67  58  72 N3        29.70R

$$

MOZ001>008-011>017-020>025-030>033-038>040-044>046-053-054-282300-
...NORTHERN AND CENTRAL MISSOURI...

CITY           SKY/WX    TMP DP  RH WIND       PRES   REMARKS
ST. JOSEPH     CLOUDY    47  46  97 NE13      29.79R
MOSBY          CLOUDY    54  54 100 N9        29.74R FOG
WHITEMAN AFB   CLOUDY    62  62 100 SW6       29.71R
CLINTON        CLOUDY    63  59  88 CALM      29.72R
SEDALIA        CLOUDY    63  60  90 SE6       29.72F
WARSAW         NOT AVBL
CHILLICOTHE      N/A     49  47  93 N9G17     29.78R
KIRKSVILLE     CLOUDY    49  31  49 N13       29.78R HAZE

$$

MOZ041-047>049-056>058-063>065-088>090-097-282300-
...EASTERN AND SOUTHERN MISSOURI...

CITY           SKY/WX    TMP DP  RH WIND       PRES   REMARKS
ST. LOUIS INTL CLOUDY    59  55  88 E7        29.78S
SPIRIT OF STL  CLOUDY    58  57  97 E6        29.77R
COLUMBIA       CLOUDY    59  57  93 SE8       29.73S
JEFFERSON CITY CLOUDY    61  57  87 E8        29.73F
ROLLA          CLOUDY    58  58 100 E9        29.74S FOG
OSAGE BEACH    CLOUDY    63  61  94 SE3       29.72F
SPRINGFIELD    CLOUDY    64  61  90 SE9       29.71S
BRANSON        CLOUDY    63  63 100 CALM      29.74R
JOPLIN         CLOUDY    67  61  81 SE5       29.71R
WEST PLAINS    CLOUDY    63  62  97 S6        29.76F

$$

IAZ060-094-KSZ022-034>040-054-083-096-NEZ052-066-093-282300-
...KANSAS...SOUTHEAST NEBRASKA AND IOWA...

CITY           SKY/WX    TMP DP  RH WIND       PRES   REMARKS
TOPEKA         CLOUDY    58  55  90 N16       29.71R
MANHATTAN      CLOUDY    54  49  83 N12G20    29.75R
EMPORIA        MOSUNNY   71  50  47 N8        29.67S
CHANUTE        MOSUNNY   70  56  61 VRB5      29.67F
WICHITA        MOSUNNY   72  44  36 N17       29.65R
OMAHA          DRIZZLE   41  37  86 N13       29.89R WCI  34
LINCOLN        LGT RAIN  41  40  96 NE13      29.89R FOG     WCI  34
FALLS CITY     CLOUDY    44  42  93 NE8       29.81R
LAMONI         LGT RAIN  41  39  93 NE16      29.80R WCI  33
DES MOINES     CLOUDY    44  40  85 NE14      29.87R

$$





USA.gov is the U.S. government's official web portal to all federal, state and local government web resources and services.